This is the latest recevied weather packets stored in our database for station/object KB3HHA-13. If no packets are shown the sender has not sent any weather packets the latest 10 day(s).
| Time | Temp. | Humidity | Pressure | Rain* | Wind** | Luminosity | Snow |
|---|---|---|---|---|---|---|---|
| 1777664221 | 20° C | 38% | 1011 hPa | 0 mm | - | - | - |
| 1777663923 | 20° C | 39% | 1011.2 hPa | 0 mm | - | - | - |
| 1777663623 | 20° C | 38% | 1011.3 hPa | 0 mm | - | - | - |
| 1777663323 | 20° C | 37% | 1011.3 hPa | 0 mm | - | - | - |
| 1777663020 | 20° C | 37% | 1011.4 hPa | 0 mm | - | - | - |
| 1777662723 | 20° C | 37% | 1011.5 hPa | 0 mm | - | - | - |
| 1777662421 | 20° C | 38% | 1011.6 hPa | 0 mm | - | - | - |
| 1777662121 | 19.44° C | 39% | 1011.7 hPa | 0 mm | - | - | - |
| 1777661821 | 19.44° C | 39% | 1011.7 hPa | 0 mm | - | - | - |
| 1777661520 | 19.44° C | 37% | 1011.7 hPa | 0 mm | - | - | - |
| 1777661222 | 19.44° C | 38% | 1011.9 hPa | 0 mm | - | - | - |
| 1777660921 | 20° C | 40% | 1011.9 hPa | 0 mm | - | - | - |
| 1777660620 | 19.44° C | 42% | 1011.9 hPa | 0 mm | - | - | - |
| 1777660320 | 19.44° C | 39% | 1012.2 hPa | 0 mm | - | - | - |
| 1777660020 | 19.44° C | 40% | 1012.3 hPa | 0 mm | - | - | - |
| 1777659722 | 19.44° C | 40% | 1012.4 hPa | 0 mm | - | - | - |
| 1777659421 | 19.44° C | 40% | 1012.5 hPa | 0 mm | - | - | - |
| 1777659121 | 19.44° C | 39% | 1012.5 hPa | 0 mm | - | - | - |
| 1777658821 | 18.89° C | 41% | 1012.6 hPa | 0 mm | - | - | - |
| 1777658520 | 18.89° C | 39% | 1012.5 hPa | 0 mm | - | - | - |
| 1777658222 | 18.89° C | 41% | 1012.6 hPa | 0 mm | - | - | - |
| 1777657922 | 18.89° C | 41% | 1012.8 hPa | 0 mm | - | - | - |
| 1777657621 | 18.89° C | 40% | 1012.8 hPa | 0 mm | - | - | - |
| 1777657322 | 18.89° C | 41% | 1012.8 hPa | 0 mm | - | - | - |
| 1777657023 | 18.89° C | 41% | 1012.9 hPa | 0 mm | - | - | - |
* Rain latest hour (hover to see other rain measurements)
** Current wind speed in m/s (hover to see current wind gust speed)